Weather History for Clarksville, TN

Change the Weather History Date:

Wednesday, February 27, 2013

  Actual Average Record
Temperature  
Mean Temperature 38 °F -  
Max Temperature 39 °F - 79 °F (1954)
Min Temperature 36 °F - 9 °F (1963)
Degree Days  
Heating Degree Days 27    
Month to date heating degree days  
Since 1 July heating degree days  
Cooling Degree Days 0    
Month to date cooling degree days  
Moisture  
Dew Point 31 °F    
Average Humidity 75    
Maximum Humidity 83    
Minimum Humidity 67    
Precipitation  
Precipitation 0.00 in - 2.69 in (1962)
Month to date precipitation  
Sea Level Pressure  
Sea Level Pressure 29.84 in    
Wind  
Wind Speed 12 mph (WSW)    
Max Wind Speed 15 mph    
Max Gust Speed 24 mph    
Visibility 10 miles    
Events Rain    
T = Trace of Precipitation, MM = Missing Value Source: NWS Daily Summary

Daily Weather History Graph

Daily Weather History Graph

Search for Another Location

Airport:

Trip Planner

Search our weather history database for the weather conditions in past years. The results will help you decide how hot, cold, wet, or windy it might be!

Date:

Astronomy

Feb. 27, 2013 Rise Set
Actual Time 6:22 AM CST 5:42 PM CST
Civil Twilight 5:56 AM CST 6:08 PM CST
Nautical Twilight 5:26 AM CST 6:38 PM CST
Astronomical Twilight 4:56 AM CST 7:08 PM CST
Moon 7:58 PM CST (2/27) 7:02 AM CST (2/27)
Length of Visible Light 12h 11m
Length of Day
11h 19m
Waning Gibbous, 96% of the Moon is Illuminated
Feb 27
Waning Gibbous
Mar 4
Last Quarter
Mar 11
New
Mar 19
First Quarter
Mar 27
Full

Hourly Weather History & Observations

Time (CST) Temp. Windchill Dew Point Humidity Pressure Visibility Wind Dir Wind Speed Gust Speed Precip Events Conditions
12:52 AM 39.0 °F 32.3 °F 33.1 °F 79% 29.73 in 10.0 mi WSW 10.4 mph 24.2 mph N/A   Overcast
1:52 AM 39.0 °F 31.0 °F 34.0 °F 82% 29.74 in 10.0 mi West 13.8 mph 20.7 mph N/A   Overcast
2:52 AM 39.0 °F 30.6 °F 33.1 °F 79% 29.75 in 10.0 mi West 15.0 mph 19.6 mph N/A   Overcast
3:52 AM 37.9 °F 32.7 °F 33.1 °F 83% 29.75 in 10.0 mi WSW 6.9 mph - N/A   Overcast
4:52 AM 37.9 °F 29.6 °F 32.0 °F 79% 29.78 in 10.0 mi WSW 13.8 mph - N/A   Overcast
5:52 AM 37.9 °F 30.0 °F 32.0 °F 79% 29.80 in 10.0 mi West 12.7 mph 20.7 mph N/A   Overcast
6:52 AM 37.9 °F 29.6 °F 32.0 °F 79% 29.81 in 10.0 mi West 13.8 mph 20.7 mph N/A   Overcast
7:52 AM 37.9 °F 30.9 °F 32.0 °F 79% 29.83 in 10.0 mi WSW 10.4 mph - N/A   Overcast
8:36 AM 37.4 °F 29.8 °F 32.0 °F 81% 29.83 in 10.0 mi WSW 11.5 mph - N/A   Overcast
8:44 AM 37.4 °F 31.4 °F 32.0 °F 81% 29.83 in 10.0 mi SW 8.1 mph - N/A   Overcast
8:52 AM 37.9 °F 32.1 °F 30.9 °F 76% 29.84 in 10.0 mi WSW 8.1 mph - N/A   Overcast
9:52 AM 37.9 °F 31.5 °F 30.0 °F 73% 29.85 in 10.0 mi West 9.2 mph 20.7 mph N/A   Overcast
10:52 AM 37.9 °F 31.5 °F 30.0 °F 73% 29.86 in 10.0 mi WSW 9.2 mph 19.6 mph N/A   Overcast
11:52 AM 37.9 °F 29.2 °F 30.0 °F 73% 29.85 in 10.0 mi WSW 15.0 mph 21.9 mph N/A   Overcast
12:52 PM 37.9 °F 29.6 °F 30.0 °F 73% 29.84 in 10.0 mi WSW 13.8 mph 23.0 mph N/A   Overcast
1:52 PM 39.0 °F 30.6 °F 28.9 °F 67% 29.85 in 10.0 mi WSW 15.0 mph 21.9 mph N/A   Overcast
2:41 PM 39.2 °F 31.6 °F 30.2 °F 70% 29.84 in 10.0 mi WSW 12.7 mph 24.2 mph N/A   Overcast
2:52 PM 39.0 °F 32.3 °F 30.0 °F 70% 29.85 in 10.0 mi WSW 10.4 mph - N/A   Overcast
3:52 PM 39.0 °F 31.8 °F 30.0 °F 70% 29.86 in 10.0 mi WSW 11.5 mph 20.7 mph N/A   Overcast
4:30 PM 39.2 °F 32.0 °F 30.2 °F 70% 29.85 in 10.0 mi WSW 11.5 mph - 0.00 in   Overcast
4:52 PM 37.9 °F 30.0 °F 30.9 °F 76% 29.87 in 10.0 mi WSW 12.7 mph 19.6 mph 0.00 in Rain Light Rain
5:52 PM 37.9 °F 30.9 °F 32.0 °F 79% 29.88 in 10.0 mi West 10.4 mph - 0.00 in   Overcast
6:10 PM 37.4 °F 30.3 °F 32.0 °F 81% 29.87 in 10.0 mi WSW 10.4 mph - N/A   Overcast
6:52 PM 37.9 °F 29.6 °F 30.9 °F 76% 29.89 in 10.0 mi WSW 13.8 mph - N/A   Overcast
7:24 PM 37.4 °F 30.8 °F 30.2 °F 75% 29.88 in 10.0 mi West 9.2 mph - N/A   Overcast
8:08 PM 37.4 °F 29.3 °F 30.2 °F 75% 29.88 in 10.0 mi West 12.7 mph 19.6 mph N/A   Overcast
8:17 PM 37.4 °F 30.3 °F 30.2 °F 75% 29.88 in 10.0 mi West 10.4 mph 21.9 mph 0.00 in Rain Light Rain
8:29 PM 37.4 °F 30.3 °F 30.2 °F 75% 29.88 in 10.0 mi West 10.4 mph - 0.00 in Rain Light Rain
8:52 PM 37.9 °F 30.5 °F 30.0 °F 73% 29.90 in 10.0 mi West 11.5 mph - 0.00 in   Overcast
9:52 PM 37.9 °F 30.5 °F 28.9 °F 70% 29.89 in 10.0 mi West 11.5 mph 23.0 mph N/A   Overcast
10:45 PM 37.4 °F 29.8 °F 28.4 °F 70% 29.88 in 10.0 mi West 11.5 mph - N/A   Overcast
10:52 PM 37.9 °F 29.2 °F 28.9 °F 70% 29.89 in 10.0 mi West 15.0 mph 20.7 mph N/A   Overcast
11:52 PM 36.0 °F 27.1 °F 30.0 °F 79% 29.89 in 8.0 mi WNW 13.8 mph - 0.00 in   Overcast